カタログに戻る

STARLINK-34421

運用中通信VLEO
NORAD 64459·PAYLOAD·🇺🇸 United States

打ち上げ Jun 18, 2025 から Cape Canaveral Space Force Station

Loading…

次のパス (今後24時間)

TLE

最新Source: CelesTrak SupGP

元期: Sep 15, 2026, 02:58 UTC

1 64459C 25130X   26258.12409722  .00002159  00000+0  63783-4 0  2584
2 64459  53.1578 284.4873 0001287  82.9005 316.7167 15.34398304    19

AllMySatでSTARLINK-34421をリアルタイム追跡

Download on the App Store